A/2019 S4

Japanese version
Home page
Updated on December 9, 2019

---------------------------------------------------------------------

* Profile

Discovery Date September 17, 2019
Magnitude 20.3 mag
Discoverer Mt. Lemmon Survey

* Pictures

* Orbital Elements

Epoch 2020 Apr. 21.0 TT = JDT 2458960.5
T 2020 Apr. 8.00183 TT                                  Williams
q   3.4413570            (2000.0)            P               Q
z  +0.0040804      Peri.   71.37279     +0.17407014     -0.41761502
 +/-0.0001041      Node    63.17040     -0.12907732     -0.90748298
e   0.9859579      Incl.   92.02692     +0.97623697     -0.04552292
H   14.5
From 46 observations 2019 Sept. 17-Oct. 30, mean residual 0".4.

* Magnitudes Graph

        H = 14.5  G = 0.15

---------------------------------------------------------------------

The orbital elements are published on M.P.E.C. 2019-V116.
The magnitudes graphs are made with Comet for Windows.

---------------------------------------------------------------------

Copyright(C) Seiichi Yoshida (comet@aerith.net). All rights reserved.